This is the latest recevied weather packets stored in our database for station/object W4NDF-13. If no packets are shown the sender has not sent any weather packets the latest 10 day(s).
| Time | Temp. | Humidity | Pressure | Rain* | Wind** | Luminosity | Snow |
|---|---|---|---|---|---|---|---|
| 1777743509 | 21.11° C | 62% | 1017 hPa | 0 mm | - | 842 W/m² | - |
| 1777743206 | 20.56° C | 63% | 1017.1 hPa | 0 mm | - | 872 W/m² | - |
| 1777742904 | 21.11° C | 63% | 1017.4 hPa | 0 mm | - | 841 W/m² | - |
| 1777742601 | 20.56° C | 64% | 1017.4 hPa | 0 mm | - | 729 W/m² | - |
| 1777742296 | 21.11° C | 62% | 1017.4 hPa | 0 mm | - | 818 W/m² | - |
| 1777741994 | 20.56° C | 63% | 1017.6 hPa | 0 mm | - | 815 W/m² | - |
| 1777741691 | 20.56° C | 64% | 1017.6 hPa | 0 mm | - | 807 W/m² | - |
| 1777741386 | 20° C | 67% | 1017.5 hPa | 0 mm | - | 804 W/m² | - |
| 1777741083 | 20° C | 68% | 1017.7 hPa | 0 mm | - | 799 W/m² | - |
| 1777740780 | 20° C | 67% | 1017.7 hPa | 0 mm | - | 792 W/m² | - |
| 1777740477 | 20° C | 70% | 1017.7 hPa | 0 mm | - | 790 W/m² | - |
| 1777740174 | 20° C | 69% | 1017.5 hPa | 0 mm | - | 782 W/m² | - |
| 1777739870 | 19.44° C | 70% | 1017.5 hPa | 0 mm | - | 778 W/m² | - |
| 1777739567 | 19.44° C | 72% | 1017.5 hPa | 0 mm | - | 767 W/m² | - |
| 1777739264 | 18.89° C | 72% | 1017.8 hPa | 0 mm | - | 767 W/m² | - |
| 1777738960 | 18.89° C | 71% | 1017.7 hPa | 0 mm | - | 759 W/m² | - |
| 1777738657 | 18.89° C | 73% | 1017.7 hPa | 0 mm | - | 752 W/m² | - |
| 1777738354 | 18.89° C | 73% | 1017.6 hPa | 0 mm | - | 749 W/m² | - |
| 1777738052 | 18.89° C | 75% | 1017.6 hPa | 0 mm | - | 731 W/m² | - |
| 1777737751 | 18.33° C | 75% | 1017.6 hPa | 0 mm | - | 717 W/m² | - |
| 1777737449 | 18.33° C | 75% | 1017.7 hPa | 0 mm | - | 297 W/m² | - |
| 1777737146 | 18.33° C | 75% | 1017.6 hPa | 0 mm | - | 787 W/m² | - |
| 1777736842 | 18.89° C | 76% | 1017.8 hPa | 0 mm | - | 345 W/m² | - |
| 1777736223 | 17.78° C | 78% | 1017.8 hPa | 0 mm | - | 232 W/m² | - |
| 1777735920 | 17.78° C | 78% | 1017.7 hPa | 0 mm | - | 346 W/m² | - |
* Rain latest hour (hover to see other rain measurements)
** Current wind speed in m/s (hover to see current wind gust speed)